Weather observations for the past three days for
Tappahannock-Essex County Airport
Imperial (Metric)
Date Time (edt) Wind (mph) Vis. (mi.) Weather Sky Cond. Temperature (ºF) Relative Humidity Wind Chill (°F) Heat Index (°F) Pressure Precipitation (in)
Air Dwpt 6 hour altimeter (in) sea level (mb) 1 hr 3 hr 6 hr
Max. Min.
06 00:55 S 10 G 18 10.00 Fair CLR 68 55.9 65% 29.93 0.0
06 00:35 S 10 G 17 10.00 Fair CLR 68.5 55.9 64% 29.93 0.0
06 00:15 S 10 G 20 10.00 Fair CLR 69.1 55.8 63% 29.92 0.0
05 23:55 S 8 G 16 10.00 Fair CLR 69.6 55.4 61% 29.93 0.0
05 23:35 S 10 10.00 Fair CLR 69.8 54.7 59% 29.93 0.0
05 23:15 S 8 10.00 Fair CLR 70.3 54 56% 29.92 0.0
05 22:55 S 12 G 21 10.00 Fair CLR 70.7 52.9 53% 29.93 0.0
05 22:35 S 7 10.00 Fair CLR 71.6 52 50% 29.92 0.0
05 22:15 S 7 10.00 Fair CLR 71.8 51.8 49% 29.92 0.0
05 21:55 S 6 10.00 Fair CLR 72 51.4 49% 29.92 0.0
05 21:35 S 6 10.00 Fair CLR 73 51.1 46% 29.92 0.0
05 21:15 S 7 10.00 Fair CLR 73.2 50.9 46% 29.91 0.0
05 20:55 S 7 10.00 Fair CLR 73.8 50.4 44% 29.91 0.0
05 20:35 S 7 10.00 Fair CLR 74.5 50.2 43% 29.9 0.0
05 20:15 S 8 10.00 Fair CLR 75 49.8 41% 78 29.89 0.0
05 19:55 S 8 10.00 Fair CLR 75.7 49.3 84.7 75.6 39% 78 29.89 0.0
05 19:35 S 8 G 16 10.00 Fair CLR 77 48.2 36% 78 29.89 0.0
05 19:15 SW 12 G 23 10.00 Fair CLR 77.9 48 35% 78 29.89 0.0
05 18:55 S 13 G 25 10.00 Fair CLR 79.9 47.8 33% 79 29.88 0.0
05 18:35 S 14 G 22 10.00 Fair CLR 81.5 48.4 31% 80 29.88 0.0
05 18:15 S 13 G 18 10.00 Fair CLR 80.6 47.1 31% 80 29.88 0.0
05 17:55 S 13 G 24 10.00 Fair CLR 81.7 45.9 28% 80 29.88 0.0
05 17:35 S 16 G 28 10.00 Fair CLR 83.5 45.3 26% 81 29.88 0.0
05 17:15 S 13 G 26 10.00 Fair CLR 82.8 44.8 26% 81 29.87 0.0
05 16:55 S 13 G 21 10.00 Fair CLR 84 45.3 26% 82 29.87 0.0
05 16:35 S 14 G 22 10.00 Fair CLR 84.2 45.5 26% 82 29.87 0.0
05 16:15 SW 15 G 23 10.00 Fair CLR 84.6 45.7 26% 82 29.88 0.0
05 15:55 SW 17 G 29 10.00 Fair CLR 84.7 44.1 24% 82 29.89 0.0
05 15:35 S 17 G 30 10.00 Fair CLR 84.2 43.7 24% 82 29.89 0.0
05 15:15 S 17 G 25 10.00 Fair CLR 84.6 45 25% 82 29.9 0.0
05 14:55 S 16 G 24 10.00 Fair CLR 83.7 46 27% 81 29.91 0.0
05 14:35 S 16 G 24 10.00 Fair CLR 83.3 47.8 29% 81 29.92 0.0
05 14:15 S 17 G 25 10.00 Fair CLR 82 48.6 31% 81 29.92 0.0
05 13:55 S 12 G 25 10.00 Fair CLR 82.2 49.1 82.2 63.5 32% 81 29.93 0.0
05 13:35 S 13 G 20 10.00 Fair CLR 81.7 50.2 33% 81 29.93 0.0
05 13:15 SW 12 10.00 Fair CLR 81.1 50.7 35% 80 29.94 0.0
05 12:55 SW 9 G 21 10.00 Fair CLR 79.7 50.5 36% 79 29.94 0.0
05 12:35 S 6 10.00 Fair CLR 79.9 51.6 37% 80 29.95 0.0
05 12:15 S 13 G 17 10.00 Fair CLR 79.5 52.2 39% 80 29.96 0.0
05 11:55 SW 12 10.00 Fair CLR 78.3 51.1 39% 79 29.97 0.0
05 11:35 SW 8 10.00 Fair CLR 77.5 51.4 40% 78 29.97 0.0
05 11:15 SW 8 10.00 Fair CLR 77 51.8 42% 78 29.97 0.0
05 10:55 S 10 10.00 Fair CLR 75 51.3 43% 78 29.97 0.0
05 10:35 SW 8 10.00 Fair CLR 73.4 50.4 44% 29.97 0.0
05 10:15 S 7 G 17 10.00 Fair CLR 72.5 50.9 47% 29.97 0.0
05 09:55 SW 10 10.00 Fair CLR 71.4 51.1 49% 29.97 0.0
05 09:15 S 12 10.00 Fair CLR 68.9 50.9 53% 29.98 0.0
05 08:55 SW 12 G 17 10.00 Fair CLR 66.7 50.5 56% 29.98 0.0
05 08:35 SW 13 G 17 10.00 Fair CLR 65.5 50.9 59% 29.97 0.0
05 08:15 SW 8 G 17 10.00 Fair CLR 64.9 50.9 61% 29.97 0.0
05 07:55 SW 10 G 16 10.00 Fair CLR 63.3 50.7 63.7 60.3 64% 29.97 0.0
05 07:35 SW 9 10.00 Fair CLR 62.2 50.4 65% 29.96 0.0
05 07:15 SW 8 10.00 Fair CLR 61.7 50.2 66% 29.95 0.0
05 06:55 S 6 10.00 Fair CLR 60.8 50 68% 29.95 0.0
05 06:35 SW 8 10.00 Fair CLR 60.6 49.5 67% 29.95 0.0
05 06:15 SW 8 10.00 Fair CLR 60.3 49.5 68% 29.95 0.0
05 05:55 SW 7 10.00 Fair CLR 60.6 49.6 67% 29.94 0.0
05 05:35 SW 7 10.00 Fair CLR 61.5 49.6 65% 29.94 0.0
05 05:15 SW 9 10.00 Fair CLR 61.7 49.8 65% 29.94 0.0
05 04:55 SW 8 10.00 Fair CLR 62.2 49.8 64% 29.94 0.0
05 04:35 SW 10 10.00 Fair CLR 62.6 50 64% 29.94 0.0
05 04:15 SW 8 10.00 Fair CLR 62.6 50 64% 29.94 0.0
05 03:55 SW 8 10.00 Fair CLR 62.6 50 64% 29.93 0.0
05 03:35 SW 8 10.00 Fair CLR 62.6 50 64% 29.93 0.0
05 03:15 SW 7 10.00 Fair CLR 62.4 50.2 64% 29.92 0.0
05 02:55 SW 9 10.00 Fair CLR 62.8 50.4 64% 29.92 0.0
05 02:35 S 7 10.00 Fair CLR 63.3 50.4 63% 29.92 0.0
05 02:15 SW 10 10.00 Fair CLR 63.5 50.4 62% 29.92 0.0
05 01:55 S 6 10.00 Fair CLR 63.7 50 71.2 61.5 61% 29.92 0.0
05 01:35 S 8 10.00 Fair CLR 63.3 49.3 60% 29.92 0.0
05 01:15 S 8 10.00 Fair CLR 62.8 48.2 59% 29.92 0.0
05 00:55 S 8 10.00 Fair CLR 63 46.6 55% 29.92 0.0
05 00:35 S 7 10.00 Fair CLR 62.8 45.1 53% 29.92 0.0
05 00:15 S 7 10.00 Fair CLR 63.3 44.6 51% 29.92 0.0
04 23:55 S 5 10.00 Fair CLR 63.3 44.2 50% 29.92 0.0
04 23:35 S 5 10.00 Fair CLR 62.8 43.9 50% 29.91 0.0
04 23:15 S 3 10.00 Fair CLR 63.5 43.5 48% 29.91 0.0
04 22:55 S 5 10.00 Fair CLR 63 43.2 49% 29.91 0.0
04 22:35 S 3 10.00 Fair CLR 62.1 43.7 51% 29.91 0.0
04 22:15 Calm 10.00 Fair CLR 62.1 44.4 53% 29.91 0.0
04 21:55 Calm 10.00 Fair CLR 64.4 43.2 46% 29.9 0.0
04 21:35 Calm 10.00 Partly Cloudy SCT110 65.8 42.6 43% 29.9 0.0
04 21:15 Calm 10.00 Mostly Cloudy BKN120 68.7 41.2 37% 29.89 0.0
04 20:55 S 3 10.00 Overcast OVC120 68.2 41 37% 29.88 0.0
04 20:35 Calm 10.00 Mostly Cloudy BKN120 69.1 40.5 35% 29.89 0.0
04 20:15 S 3 10.00 Fair CLR 69.4 40.1 34% 29.89 0.0
04 19:55 S 5 10.00 Fair CLR 71.4 39.4 78.3 71.4 31% 29.88 0.0
04 19:35 SW 9 10.00 Fair CLR 73.4 38.7 28% 29.88 0.0
04 19:15 SW 10 G 16 10.00 Fair CLR 75.2 39 27% 77 29.88 0.0
04 18:55 SW 8 10.00 Fair CLR 76.1 39.6 27% 77 29.87 0.0
04 18:35 SW 8 G 18 10.00 Fair CLR 76.3 39.4 27% 77 29.87 0.0
04 18:15 SW 8 G 16 10.00 Fair CLR 76.6 40.6 28% 77 29.88 0.0
04 17:55 SW 8 10.00 Fair CLR 76.8 40.8 28% 77 29.88 0.0
04 17:35 S 9 G 16 10.00 Fair CLR 76.5 39.9 27% 77 29.88 0.0
04 17:15 S 9 G 18 10.00 Fair CLR 76.8 39.4 26% 77 29.89 0.0
04 16:55 S 9 10.00 Fair CLR 77 38.3 25% 77 29.89 0.0
04 16:35 SW 7 G 16 10.00 Fair CLR 77.2 38.3 25% 77 29.89 0.0
04 16:15 S 10 G 17 10.00 Fair CLR 75.4 37.2 25% 77 29.89 0.0
04 15:55 S 9 G 16 10.00 Fair CLR 75.4 37.6 25% 77 29.9 0.0
04 15:35 S 9 10.00 Fair CLR 75.2 37.8 26% 77 29.91 0.0
04 15:15 SW 12 G 18 10.00 Fair CLR 74.8 37 25% 29.91 0.0
04 14:55 SW 10 G 18 10.00 Fair CLR 77 36 23% 77 29.91 0.0
04 14:35 S 10 G 16 10.00 Fair CLR 77.4 35.2 22% 77 29.92 0.0
04 14:15 SW 10 G 21 10.00 Fair CLR 76.5 34 21% 77 29.93 0.0
04 13:55 SW 14 G 21 10.00 Fair CLR 77 34.7 77 52.3 22% 77 29.94 0.0
04 13:35 S 10 G 18 10.00 Fair CLR 75.7 34.9 23% 77 29.94 0.0
04 13:15 W 10 G 17 10.00 Fair CLR 75.4 37.4 25% 77 29.95 0.0
04 12:55 W 9 G 16 10.00 Fair CLR 74.3 36.1 25% 29.96 0.0
04 12:35 S 6 G 17 10.00 Fair CLR 73.8 36 25% 29.96 0.0
04 12:15 W 12 G 17 10.00 Fair CLR 73 36.1 26% 29.97 0.0
04 11:55 W 9 G 21 10.00 Fair CLR 72 37.2 28% 29.98 0.0
04 11:35 W 3 10.00 Fair CLR 71.2 38.3 30% 29.98 0.0
04 11:15 W 7 10.00 Fair CLR 70.7 39.4 32% 29.99 0.0
04 10:55 SW 3 10.00 Fair CLR 69.3 40.1 35% 29.99 0.0
04 10:35 W 6 10.00 Fair CLR 67.3 38.7 35% 29.99 0.0
04 10:15 SW 6 10.00 Fair CLR 65.5 39 38% 29.99 0.0
04 09:55 SW 7 10.00 Fair CLR 63.9 39 40% 30 0.0
04 09:35 SW 9 10.00 Partly Cloudy SCT120 62.1 39 43% 30 0.0
04 09:15 SW 6 10.00 Mostly Cloudy BKN120 59 38.8 47% 30.01 0.0
04 08:55 SW 7 10.00 Mostly Cloudy BKN120 57.9 38.8 49% 30.01 0.0
04 08:35 SW 6 10.00 Partly Cloudy SCT120 55.8 39.2 54% 30.02 0.0
04 08:15 SW 8 10.00 Fair CLR 54 39 57% 30.01 0.0
04 07:55 SW 3 10.00 Fair CLR 52.3 39.2 52.3 48.2 61% 30.02 0.0
04 07:35 SW 3 10.00 Fair CLR 50.9 39.2 64% 30.02 0.0
04 07:15 S 5 10.00 Partly Cloudy SCT090 50.2 39.2 66% 30.02 0.0
04 06:55 S 5 10.00 Mostly Cloudy BKN090 49.5 38.8 67% 48 30.02 0.0
04 06:35 S 3 10.00 Overcast OVC100 49.3 38.8 67% 30.02 0.0
04 06:15 S 5 10.00 Mostly Cloudy BKN100 48.7 39.2 70% 47 30.02 0.0
04 05:55 S 5 10.00 Mostly Cloudy BKN110 48.4 38.8 70% 47 30.02 0.0
04 05:35 S 5 10.00 Partly Cloudy SCT110 48.4 39 70% 47 30.02 0.0
04 05:15 S 5 10.00 Overcast OVC110 48.7 39 69% 47 30.02 0.0
04 04:55 S 5 10.00 Mostly Cloudy BKN110 49.1 39.2 69% 48 30.03 0.0
04 04:35 S 5 10.00 Partly Cloudy SCT110 49.3 39.2 68% 48 30.03 0.0
04 04:15 S 3 10.00 Fair CLR 49.3 38.8 67% 30.03 0.0
04 03:55 S 3 10.00 Fair CLR 49.6 38.7 66% 30.03 0.0
04 03:35 S 5 10.00 Partly Cloudy SCT120 49.5 38.7 67% 48 30.03 0.0
04 03:15 S 6 10.00 Partly Cloudy SCT110 49.3 38.8 67% 47 30.03 0.0
04 02:55 S 5 10.00 Mostly Cloudy BKN110 49.5 39 67% 48 30.04 0.0
04 02:35 S 6 10.00 Partly Cloudy SCT120 49.1 38.1 66% 47 30.04 0.0
04 02:15 S 5 10.00 Fair CLR 48.9 36.5 62% 48 30.04 0.0
04 01:55 S 3 10.00 Fair CLR 48.6 35.4 54.9 40.1 61% 30.03 0.0
04 01:35 S 3 10.00 Fair CLR 48.4 34.7 59% 30.03 0.0
04 01:15 S 3 10.00 Fair CLR 47.7 34.7 61% 30.03 0.0
04 00:55 Calm 10.00 Fair CLR 46.9 34.2 61% 30.03 0.0
04 00:35 Calm 10.00 Fair CLR 46 34.3 64% 30.03 0.0
04 00:15 Calm 10.00 Fair CLR 43.5 33.8 69% 30.03 0.0
03 23:55 Calm 10.00 Fair CLR 43.5 32.7 66% 30.03 0.0
03 23:35 Calm 10.00 Fair CLR 42.4 33.3 70% 30.03 0.0
03 23:15 Calm 10.00 Fair CLR 40.8 34.3 78% 30.02 0.0
03 22:55 Calm 10.00 Fair CLR 42.6 33.8 71% 30.03 0.0
03 22:35 Calm 10.00 Fair CLR 41.5 34.7 77% 30.02 0.0
03 22:15 Calm 10.00 Fair CLR 42.1 35.1 76% 30.03 0.0
03 21:55 Calm 10.00 Fair CLR 43.5 35.1 72% 30.02 0.0
03 21:35 Calm 10.00 Fair CLR 44.1 34.5 69% 30.02 0.0
03 21:15 Calm 10.00 Fair CLR 46.2 34.5 64% 30.02 0.0
03 20:55 Calm 10.00 Fair CLR 46.8 34.7 63% 30.02 0.0
03 20:35 Calm 10.00 Fair CLR 50 33.4 53% 30.01 0.0
03 20:15 Calm 10.00 Fair CLR 52 32.5 48% 30 0.0
03 19:55 Calm 10.00 Fair CLR 55.2 31.1 64 55.2 40% 30 0.0
03 19:35 Calm 10.00 Fair CLR 58.3 29.5 33% 29.99 0.0
03 19:15 W 5 10.00 Fair CLR 60.8 27 28% 29.99 0.0
03 18:55 W 5 10.00 Fair CLR 61.7 26.8 27% 29.99 0.0
03 18:35 NW 3 10.00 Fair CLR 62.2 26.6 26% 29.99 0.0
03 18:15 NW 6 10.00 Partly Cloudy SCT002 63 26.6 25% 29.99 0.0
03 17:55 SW 7 10.00 Fair CLR 63 26.4 25% 30 0.0
03 17:35 W 7 10.00 Fair CLR 63.3 26.2 24% 29.99 0.0
03 17:15 W 12 G 16 10.00 Fair CLR 63.9 26.8 25% 30 0.0
03 16:55 NW 5 10.00 Fair CLR 63.3 27 25% 29.99 0.0
03 16:35 SW 6 10.00 Fair CLR 62.8 27 26% 29.99 0.0
03 16:15 W 8 10.00 Fair CLR 63 27.5 26% 30 0.0
03 15:55 W 8 G 20 10.00 Fair CLR 63 26.2 25% 30 0.0
03 15:35 NW 5 G 9 10.00 Fair CLR 62.2 26.2 25% 30.01 0.0
03 14:55 W 10 10.00 Fair CLR 61 26.6 27% 30.03 0.0
03 14:35 NW 8 G 17 10.00 Fair CLR 60.4 25 26% 30.04 0.0
03 14:15 W 9 G 17 10.00 Fair CLR 60.8 26.6 27% 30.04 0.0
03 13:55 N 9 G 20 10.00 Fair CLR 59.7 26.8 60.6 46.4 28% 30.04 0.0
03 13:35 W 13 G 16 10.00 Fair CLR 58.6 27 30% 30.04 0.0
03 13:15 NW 10 10.00 Fair CLR 57.9 27.1 31% 30.05 0.0
03 12:55 NW 5 10.00 Fair CLR 57.6 27.5 32% 30.06 0.0
03 12:35 W 10 G 22 10.00 Fair CLR 57.4 27 31% 30.07 0.0
03 12:15 NW 10 G 18 10.00 Fair CLR 55.8 27.7 34% 30.07 0.0
03 11:55 W 10 G 22 10.00 Partly Cloudy SCT055 55.4 27.5 34% 30.07 0.0
03 11:35 W 9 G 18 10.00 Partly Cloudy SCT055 54 27.3 36% 30.07 0.0
03 11:15 NW 12 G 18 10.00 Partly Cloudy SCT055 53.2 27.9 38% 30.07 0.0
03 10:55 NW 10 G 18 10.00 Partly Cloudy SCT055 53.8 27.7 37% 30.07 0.0
03 10:35 NW 10 G 18 10.00 Partly Cloudy SCT050 52 27.5 39% 30.08 0.0
03 10:15 NW 8 G 18 10.00 Partly Cloudy SCT050 51.4 27.7 40% 30.07 0.0
03 09:55 NW 6 G 16 10.00 Partly Cloudy SCT050 52 28.6 41% 30.07 0.0
03 09:35 NW 12 G 17 10.00 Fair CLR 51.1 28.8 42% 30.07 0.0
03 09:15 NW 12 G 18 10.00 Fair CLR 50.2 28.4 43% 30.07 0.0
03 08:55 NW 8 G 16 10.00 Fair CLR 49.8 31.1 49% 47 30.07 0.0
03 08:35 W 10 10.00 Partly Cloudy SCT075 48.4 31.8 53% 44 30.07 0.0
03 08:15 NW 7 10.00 Partly Cloudy SCT075 47.5 32.2 55% 45 30.06 0.0
03 07:55 NW 6 10.00 Fair CLR 46.2 32.5 50.9 42.3 59% 44 30.06 0.0
03 07:35 W 5 10.00 Fair CLR 45.1 32.2 61% 43 30.06 0.0
03 07:15 NW 3 10.00 Fair CLR 44.1 32 63% 30.05 0.0
03 06:55 NW 5 10.00 Fair CLR 43.7 32 64% 42 30.03 0.0
03 06:35 W 5 10.00 Fair CLR 42.8 32 66% 41 30.02 0.0
03 06:15 NW 3 10.00 Fair CLR 42.4 32 67% 30.01 0.0
03 05:55 W 3 10.00 Fair CLR 43.2 32 65% 30 0.0
03 05:35 NW 3 10.00 Fair CLR 44.6 32 61% 30 0.0
03 05:15 NW 3 10.00 Mostly Cloudy SCT070 BKN090 45.5 32 59% 29.99 0.0
03 04:55 NW 6 10.00 Overcast OVC070 46.8 32.4 57% 44 29.98 0.0
03 04:35 NW 5 10.00 Overcast BKN075 OVC080 47.5 32 55% 46 29.97 0.0
03 04:15 NW 3 10.00 Overcast OVC090 48.2 31.6 53% 29.97 0.0
03 03:55 NW 7 10.00 Overcast SCT070 OVC090 48.9 30.4 49% 46 29.97 0.0
03 03:35 NW 9 10.00 Overcast OVC100 49.3 29.3 46% 46 29.96 0.0
03 03:15 NW 6 10.00 Overcast OVC100 50 31.6 49% 48 29.95 0.0
03 02:55 N 7 10.00 Overcast OVC090 50.2 32.4 51% 29.95 0.0
03 02:35 NW 3 10.00 Overcast OVC090 50.5 33.1 51% 29.94 0.0
03 02:15 N 6 10.00 Overcast OVC090 50.9 32.9 50% 29.94 0.0
03 01:55 N 5 10.00 Overcast OVC090 51.1 33.3 53.4 43.7 51% 29.94 0.0
03 01:35 NW 6 10.00 Overcast OVC090 50.7 34.9 55% 29.94 0.0
03 01:15 NW 3 10.00 Overcast OVC090 50.4 36.1 58% 29.94 0.0
Date Time (edt) Wind (mph) Vis. (mi.) Weather Sky Cond. Air Dwpt Max. Min. Relative Humidity Wind Chill (°F) Heat Index (°F) altimeter (in) sea level (mb) 1 hr 3 hr 6 hr
6 hour
Temperature (ºF) Pressure Precipitation (in)